Flag for U.S.A. Weather past 2 weeks in Oxnard, California, U.S.A.

Now
73 °F

Haze.


Feels Like: 75 °F
Forecast: 65 / 76 °F
Wind: 7 mph from Southwest

Location: Oxnard Airport

Current Time: Jul 25, 2014 at 11:29:47 AM

Latest Report: Jul 25, 2014 at 10:51 AM


Visibility: 6 mi

Pressure: 29.90 "Hg

Humidity: 71%

Dew point: 63 °F

Location of OxnardLocation

Historic Weather in Oxnard — Graph

°F

Oxnard temperature yesterday

Maximum temperature yesterday: 77 °F (at 2:51 PM)
Minimum temperature yesterday: 61 °F (at 5:51 AM)
Average temperature yesterday: 69 °F

Past Weeks' High & Low Weather Summary

 TemperatureHumidityPressure
High77 °F (Jul 24, 2:51 PM)91% (Jul 22, 12:51 AM)30.07 "Hg (Jul 22, 12:51 AM)
Low60 °F (Jul 12, 5:51 AM)54% (Jul 21, 1:51 PM)29.75 "Hg (Jul 24, 5:51 PM)
Average68 °F77%29.96 "Hg
* Reported Jul 10 9:51 AM — Jul 25 9:51 AM, Oxnard, Weather by CustomWeather, © 2014

Note: Actual official high and low records may vary slightly from our data, if they occured in-between our weather recording intervals... More about our weather records

Advertising

Oxnard weather history for previous 24 hours

 ConditionsComfort  
Time TempWeatherWind HumidityBarometerVisibility
9:51 AM
Jul 25
72 °FSunny.6 mph73%29.89 "Hg6 mi
8:51 AM69 °FHaze.3 mph79%29.88 "Hg6 mi
7:51 AM66 °FFog.6 mph87%29.88 "Hg5 mi
6:51 AM62 °FFog.No wind90%29.86 "Hg4 mi
5:51 AM63 °FFog.No wind87%29.85 "Hg6 mi
4:51 AM62 °FFog.No wind90%29.85 "Hg5 mi
3:51 AM63 °FFog.No wind90%29.84 "Hg5 mi
2:51 AM64 °FFog.No wind87%29.83 "Hg5 mi
1:51 AM64 °FFog.No wind87%29.81 "Hg6 mi
12:51 AM64 °FFog.3 mph87%29.81 "Hg6 mi
11:51 PM
Jul 24
64 °FFog.5 mph87%29.80 "Hg6 mi
10:51 PM65 °FClear.5 mph85%29.79 "Hg6 mi
9:51 PM65 °FClear.6 mph85%29.79 "Hg6 mi
8:51 PM66 °FSunny.7 mph81%29.78 "Hg7 mi
7:51 PM67 °FSunny.10 mph79%29.75 "Hg6 mi
6:51 PM70 °FSunny.14 mph73%29.75 "Hg6 mi
5:51 PM71 °FSunny.14 mph71%29.75 "Hg6 mi
4:51 PM73 °FSunny.14 mph66%29.76 "Hg7 mi
3:51 PM74 °FSunny.14 mph67%29.78 "Hg7 mi
2:51 PM77 °FSunny.12 mph60%29.80 "Hg8 mi
1:51 PM76 °FSunny.12 mph64%29.81 "Hg10 mi
12:51 PM76 °FSunny.10 mph64%29.83 "Hg10 mi
11:51 AM76 °FSunny.12 mph60%29.84 "Hg10 mi
Weather by CustomWeather, © 2014

See weather overviewHow to use our weather pages